Content
SEND FEEDBACK

Daily
Averages
Monthly
Summary
United States of America

ST. LOUIS, MISSOURI


Home > North America > United States > Missouri
Elevation: 535 feet     Latitude: 38 45N     Longitude: 090 22W

WEATHER
 
SELECT A DAY
Number of Records: 198,984;   Date Range: 1/1/95 - 9/30/14
 
SHARE

PRINT THIS DATA

[ ← Previous Day ]
WEATHER ALMANAC - FEBRUARY 26, 2013
[ Next Day → ]
[ °C ]   °F
Weather ElementAverageHighLow
Temperature36.2 °F39.2 °F (10:32 am)34 °F (6:54 pm)
Dewpoint33.7 °F37.4 °F (10:32 am)30 °F (10:54 pm)
Humidity90.8 %93 % (5:54 am)85 % (10:54 pm)
Barometer29.46 in29.70 in (11:54 pm)29.35 in (9:01 am)
Wind Speed10.7 mph20.7 mph (1:54 am)
Wind Gust31.1 mph (1:19 am)
Weather ElementAverage
Visibility3.6 mi
Wind DirectionSSE (151.5 °)

Weather ElementTotal
Precipitation0.78 in
Heating Degree Days28.4 (Base 65)
Averaged from 39 records on February 26, 2013
WEATHER CONDITIONS BREAKOUT
WIND DIRECTION BREAKOUT
WEATHER BY HOUR - FEBRUARY 26, 2013
[ °C ]   °F
Local TimeTemperatureDewpointHumidityBarometerVisibilityWind DirectionWind SpeedGust SpeedPrecipitationEventsConditions
1:19 AM35.6 °F32.0 °F87 %29.55 in4.0 miNE (50°)17.3 mph31.1 mph0.07 inRainRain
1:54 AM35.1 °F32.0 °F89 %29.53 in3.0 miNE (50°)20.7 mph26.5 mph0.18 inRainRain
1:56 AM35.6 °F32.0 °F87 %29.51 in3.0 miNE (50°)20.7 mph27.6 mph0.01 inRainRain
2:10 AM35.6 °F32.0 °F87 %29.48 in3.0 miNE (50°)20.7 mph31.1 mph0.07 inRainHeavy Rain
2:22 AM35.6 °F32.0 °F87 %29.48 in3.0 miENE (60°)18.4 mph29.9 mph0.11 inRainRain
2:31 AM35.6 °F32.0 °F87 %29.47 in4.0 miNE (50°)20.7 mph28.8 mph0.12 inRainLight Rain
2:54 AM35.1 °F32.0 °F89 %29.46 in4.0 miNE (50°)18.4 mph26.5 mph0.13 inRainLight Rain
3:54 AM35.1 °F32.0 °F89 %29.42 in5.0 miENE (60°)13.8 mph0.07 inRainLight Rain
4:54 AM35.1 °F32.0 °F89 %29.42 in3.0 miENE (60°)11.5 mph0.01 inRainLight Rain
5:06 AM35.6 °F32.0 °F87 %29.40 in2.5 miENE (60°)12.7 mph0.00 inRainLight Rain
5:17 AM35.6 °F32.0 °F87 %29.39 in3.0 miENE (60°)13.8 mph0.01 inRainLight Rain
5:54 AM35.6 °F33.8 °F93 %29.38 in4.0 miENE (60°)11.5 mphOvercast
6:54 AM36.0 °F33.1 °F89 %29.38 in7.0 miENE (70°)12.7 mph0.00 inOvercast
7:54 AM36.0 °F34.0 °F93 %29.37 in2.0 miNE (50°)12.7 mphOvercast
8:54 AM37.0 °F35.1 °F93 %29.37 in2.0 miNE (50°)8.1 mph0.00 inOvercast
9:01 AM37.4 °F35.6 °F93 %29.35 in1.5 miNE (50°)6.9 mphOvercast
9:17 AM37.4 °F35.6 °F93 %29.36 in2.0 miNNE (30°)8.1 mphOvercast
9:38 AM37.4 °F35.6 °F93 %29.36 in3.0 miNE (50°)10.4 mphOvercast
9:54 AM37.9 °F36.0 °F93 %29.38 in3.0 miENE (60°)8.1 mphOvercast
10:32 AM39.2 °F37.4 °F93 %29.36 in2.5 miNE (50°)10.4 mphOvercast
10:54 AM39.0 °F37.0 °F93 %29.38 in2.5 miNE (40°)6.9 mphOvercast
11:12 AM39.2 °F37.4 °F93 %29.36 in1.2 miNNE (30°)5.8 mphOvercast
11:49 AM37.4 °F35.6 °F93 %29.37 in2.0 miNorth (10°)5.8 mph0.00 inOvercast
11:54 AM37.9 °F36.0 °F93 %29.39 in1.8 miNorth (360°)4.6 mph0.00 inOvercast
12:54 PM37.9 °F36.0 °F93 %29.39 in1.5 miNNE (20°)4.6 mphOvercast
1:05 PM37.4 °F35.6 °F93 %29.38 in2.0 miNorth (360°)4.6 mphOvercast
1:54 PM37.0 °F35.1 °F93 %29.41 in1.8 miNorth (360°)5.8 mphOvercast
2:54 PM37.0 °F35.1 °F93 %29.43 in2.0 miNW (320°)5.8 mphOvercast
3:08 PM37.4 °F35.6 °F93 %29.42 in1.8 miNorth (350°)5.8 mphOvercast
3:41 PM35.6 °F33.8 °F93 %29.45 in2.0 miWNW (300°)6.9 mphOvercast
3:54 PM36.0 °F34.0 °F93 %29.47 in1.5 miNW (320°)10.4 mphOvercast
4:54 PM36.0 °F34.0 °F93 %29.51 in2.0 miNW (310°)9.2 mphOvercast
5:54 PM35.1 °F33.1 °F92 %29.55 in2.0 miWNW (300°)8.1 mphOvercast
6:54 PM34.0 °F32.0 °F92 %29.59 in3.0 miNW (310°)8.1 mph0.00 inRainLight Rain
7:54 PM34.0 °F32.0 °F92 %29.61 in10.0 miWNW (300°)9.2 mph0.00 inOvercast
8:54 PM34.0 °F30.9 °F89 %29.62 in10.0 miNW (310°)9.2 mphOvercast
9:54 PM34.0 °F30.9 °F89 %29.66 in10.0 miWNW (290°)10.4 mphOvercast
10:54 PM34.0 °F30.0 °F85 %29.69 in10.0 miWest (280°)10.4 mphOvercast
11:54 PM34.0 °F30.9 °F89 %29.70 in7.0 miWest (270°)9.2 mphOvercast
Hourly data recorded from KSUS, located miles away from St. Louis, Missouri







STORIES FROM OUR PARTNERS